Location: Choisy
(48.7685°N, 2.4187°E)
Time: 19:35:06
(UTC+00:00)

Envisat - Pass Details

Date: 29 February 2024
Orbit: 762 x 764 km, 98.3° (Epoch: 24 April)

Event Time Altitude Azimuth Distance (km) Brightness Sun altitude
Rises 02:37:58 0° 21° (NNE) 3,243 7.0 -37.7°
Reaches altitude 10° 02:40:30 10° 30° (NNE) 2,312 6.1 -37.4°
Enters shadow 02:43:20 27° 57° (ENE) 1,449 4.9 -37.0°
